When you browse on this site, cookies collect data to enhance your experience and personalize the content and advertising you see.
Visit our Privacy Policy to learn more. By continuing to use the site, you agree to this use of cookies and data.
  • In Hungary
  • List of Countries
  • For 7 days
  • Water Temperature
  • Weather Map
  • News
  • Weather Widgets
  • user-avatar
    Login

    Hourly Weather Ploty

    Today, 15 October, Tuesday

    Time Temperature Precipitation Wind Pressure Humidity
    00:00 +13°C° 0 mm 6 mps 741 mmHg 69%
    01:00 +13°C° 0 mm 5 mps 741 mmHg 71%
    02:00 +12°C° 0 mm 5 mps 741 mmHg 72%
    03:00 +12°C° 0 mm 5 mps 741 mmHg 77%
    04:00 +12°C° 0 mm 4 mps 741 mmHg 82%
    05:00 +11°C° 0 mm 4 mps 742 mmHg 87%
    06:00 +12°C° 0 mm 4 mps 742 mmHg 88%
    07:00 +12°C° 0 mm 4 mps 743 mmHg 88%
    08:00 +12°C° 0 mm 4 mps 743 mmHg 89%
    09:00 +13°C° 0 mm 4 mps 743 mmHg 83%
    10:00 +14°C° 0 mm 4 mps 744 mmHg 77%
    11:00 +16°C° 0 mm 3 mps 744 mmHg 71%
    12:00 +16°C° 0 mm 3 mps 744 mmHg 69%
    13:00 +16°C° 0 mm 3 mps 744 mmHg 67%
    14:00 +16°C° 0 mm 3 mps 745 mmHg 65%
    15:00 +15°C° 0 mm 2 mps 745 mmHg 69%
    16:00 +14°C° 0 mm 2 mps 745 mmHg 73%
    17:00 +13°C° 0 mm 2 mps 745 mmHg 77%
    18:00 +13°C° 0 mm 2 mps 746 mmHg 78%
    19:00 +12°C° 0 mm 2 mps 746 mmHg 78%
    20:00 +12°C° 0 mm 2 mps 747 mmHg 79%
    21:00 +10°C° 0 mm 2 mps 747 mmHg 81%
    22:00 +10°C° 0 mm 2 mps 747 mmHg 83%
    23:00 +9°C° 0 mm 2 mps 747 mmHg 86%

    Tomorrow, 16 October, Wednesday

    Time Temperature Precipitation Wind Pressure Humidity
    00:00 +9°C° 0 mm 2 mps 748 mmHg 86%
    01:00 +8°C° 0 mm 3 mps 748 mmHg 86%
    02:00 +8°C° 0 mm 3 mps 748 mmHg 86%
    03:00 +7°C° 0 mm 3 mps 748 mmHg 86%
    04:00 +7°C° 0 mm 3 mps 748 mmHg 86%
    05:00 +7°C° 0 mm 3 mps 748 mmHg 86%
    06:00 +7°C° 0 mm 3 mps 748 mmHg 85%
    07:00 +7°C° 0 mm 4 mps 748 mmHg 83%
    08:00 +7°C° 0 mm 4 mps 749 mmHg 81%
    09:00 +8°C° 0 mm 4 mps 749 mmHg 78%
    10:00 +11°C° 0 mm 4 mps 749 mmHg 75%
    11:00 +12°C° 0 mm 4 mps 749 mmHg 72%
    12:00 +12°C° 0 mm 4 mps 748 mmHg 71%
    13:00 +13°C° 0 mm 4 mps 748 mmHg 70%
    14:00 +13°C° 0 mm 4 mps 748 mmHg 69%
    15:00 +12°C° 0 mm 4 mps 747 mmHg 72%
    16:00 +12°C° 0 mm 4 mps 747 mmHg 75%
    17:00 +11°C° 0 mm 4 mps 747 mmHg 78%
    18:00 +10°C° 0 mm 4 mps 747 mmHg 79%
    19:00 +9°C° 0 mm 5 mps 747 mmHg 80%
    20:00 +9°C° 0 mm 5 mps 747 mmHg 80%
    21:00 +8°C° 0 mm 5 mps 746 mmHg 80%
    22:00 +8°C° 0 mm 5 mps 746 mmHg 80%
    23:00 +8°C° 0 mm 5 mps 746 mmHg 80%

    Day after tomorrow, 17 October, Thursday

    Time Temperature Precipitation Wind Pressure Humidity
    00:00 +8°C° 0 mm 5 mps 746 mmHg 82%
    01:00 +8°C° 0 mm 5 mps 745 mmHg 83%
    02:00 +7°C° 0 mm 4 mps 745 mmHg 85%
    03:00 +7°C° 0 mm 4 mps 745 mmHg 87%
    04:00 +7°C° 0 mm 4 mps 745 mmHg 88%
    05:00 +7°C° 0 mm 4 mps 745 mmHg 90%
    06:00 +8°C° 0 mm 5 mps 744 mmHg 89%
    07:00 +9°C° 0 mm 5 mps 744 mmHg 88%
    08:00 +9°C° 0 mm 5 mps 744 mmHg 87%
    09:00 +12°C° 0 mm 5 mps 744 mmHg 83%
    10:00 +13°C° 0 mm 5 mps 744 mmHg 78%
    11:00 +15°C° 0 mm 4 mps 744 mmHg 74%
    12:00 +15°C° 0 mm 4 mps 743 mmHg 71%
    13:00 +16°C° 0 mm 5 mps 743 mmHg 67%
    14:00 +17°C° 0 mm 5 mps 743 mmHg 64%
    15:00 +17°C° 0 mm 4 mps 743 mmHg 69%
    16:00 +15°C° 0 mm 4 mps 742 mmHg 75%
    17:00 +13°C° 0 mm 3 mps 742 mmHg 80%
    18:00 +13°C° 0 mm 3 mps 742 mmHg 81%
    19:00 +12°C° 0 mm 3 mps 742 mmHg 82%
    20:00 +12°C° 0 mm 3 mps 742 mmHg 82%
    21:00 +12°C° 0 mm 3 mps 742 mmHg 81%
    22:00 +11°C° 0 mm 3 mps 742 mmHg 80%
    23:00 +11°C° 0 mm 3 mps 742 mmHg 79%

    18 October, Friday

    Time Temperature Precipitation Wind Pressure Humidity
    00:00 +11°C° 0 mm 3 mps 742 mmHg 82%
    01:00 +10°C° 0 mm 3 mps 742 mmHg 85%
    02:00 +10°C° 0 mm 2 mps 742 mmHg 87%
    03:00 +10°C° 0 mm 2 mps 742 mmHg 89%
    04:00 +9°C° 0 mm 2 mps 742 mmHg 90%
    05:00 +9°C° 0 mm 2 mps 742 mmHg 92%
    06:00 +10°C° 0 mm 3 mps 742 mmHg 89%
    07:00 +10°C° 0 mm 3 mps 742 mmHg 87%
    08:00 +10°C° 0 mm 3 mps 743 mmHg 84%
    09:00 +12°C° 0 mm 3 mps 743 mmHg 79%
    10:00 +13°C° 0 mm 3 mps 743 mmHg 75%
    11:00 +14°C° 0 mm 3 mps 744 mmHg 70%
    12:00 +15°C° 0 mm 2 mps 744 mmHg 69%
    13:00 +15°C° 0 mm 2 mps 744 mmHg 67%
    14:00 +16°C° 0 mm 2 mps 744 mmHg 66%
    15:00 +15°C° 0 mm 2 mps 744 mmHg 69%
    16:00 +14°C° 0 mm 2 mps 744 mmHg 73%
    17:00 +13°C° 0 mm 1 mps 744 mmHg 76%
    18:00 +13°C° 0 mm 1 mps 745 mmHg 77%
    19:00 +13°C° 0 mm 1 mps 745 mmHg 77%
    20:00 +13°C° 0 mm 1 mps 745 mmHg 78%
    21:00 +13°C° 0 mm 1 mps 745 mmHg 78%
    22:00 +13°C° 0 mm 1 mps 745 mmHg 77%
    23:00 +13°C° 0 mm 1 mps 746 mmHg 77%

    19 October, Saturday

    Time Temperature Precipitation Wind Pressure Humidity
    00:00 +12°C° 0 mm 1 mps 746 mmHg 78%
    01:00 +12°C° 0 mm 1 mps 746 mmHg 79%
    02:00 +12°C° 0 mm 1 mps 746 mmHg 80%
    03:00 +12°C° 0 mm 1 mps 746 mmHg 81%
    04:00 +12°C° 0 mm 1 mps 746 mmHg 82%
    05:00 +12°C° 0 mm 1 mps 747 mmHg 83%
    06:00 +12°C° 0 mm 1 mps 747 mmHg 82%
    07:00 +12°C° 0 mm 1 mps 747 mmHg 81%
    08:00 +12°C° 0 mm 1 mps 747 mmHg 81%
    09:00 +13°C° 0 mm 1 mps 748 mmHg 76%
    10:00 +14°C° 0 mm 1 mps 748 mmHg 71%
    11:00 +15°C° 0 mm 1 mps 748 mmHg 66%
    12:00 +15°C° 0 mm 1 mps 748 mmHg 64%
    13:00 +15°C° 0 mm 1 mps 748 mmHg 63%
    14:00 +14°C° 0 mm 0 mps 748 mmHg 61%
    15:00 +15°C° 0 mm 1 mps 748 mmHg 64%
    16:00 +14°C° 0 mm 1 mps 748 mmHg 68%
    17:00 +13°C° 0 mm 1 mps 748 mmHg 71%
    18:00 +13°C° 0 mm 1 mps 748 mmHg 74%
    19:00 +12°C° 0 mm 1 mps 749 mmHg 77%
    20:00 +11°C° 0 mm 1 mps 749 mmHg 80%
    21:00 +11°C° 0 mm 1 mps 749 mmHg 82%
    22:00 +10°C° 0 mm 1 mps 749 mmHg 84%
    23:00 +10°C° 0 mm 1 mps 749 mmHg 87%

    20 October, Sunday

    Time Temperature Precipitation Wind Pressure Humidity
    00:00 +10°C° 0 mm 1 mps 749 mmHg 88%
    01:00 +9°C° 0 mm 1 mps 749 mmHg 89%
    02:00 +9°C° 0 mm 1 mps 749 mmHg 90%
    03:00 +9°C° 0 mm 1 mps 749 mmHg 90%
    04:00 +9°C° 0 mm 1 mps 749 mmHg 90%
    05:00 +8°C° 0 mm 1 mps 749 mmHg 91%
    06:00 +9°C° 0 mm 1 mps 750 mmHg 89%
    07:00 +9°C° 0 mm 1 mps 750 mmHg 87%
    08:00 +10°C° 0 mm 1 mps 750 mmHg 85%
    09:00 +11°C° 0 mm 1 mps 750 mmHg 80%
    10:00 +12°C° 0 mm 1 mps 750 mmHg 75%
    11:00 +14°C° 0 mm 2 mps 750 mmHg 70%
    12:00 +14°C° 0 mm 2 mps 750 mmHg 69%
    13:00 +14°C° 0 mm 2 mps 750 mmHg 68%
    14:00 +14°C° 0 mm 2 mps 750 mmHg 67%
    15:00 +13°C° 0 mm 2 mps 750 mmHg 71%
    16:00 +12°C° 0 mm 2 mps 750 mmHg 75%
    17:00 +10°C° 0 mm 2 mps 750 mmHg 79%
    18:00 +10°C° 0 mm 2 mps 750 mmHg 81%
    19:00 +9°C° 0 mm 2 mps 750 mmHg 83%
    20:00 +9°C° 0 mm 2 mps 750 mmHg 85%
    21:00 +8°C° 0 mm 2 mps 750 mmHg 86%
    22:00 +8°C° 0 mm 2 mps 750 mmHg 87%
    23:00 +8°C° 0 mm 2 mps 750 mmHg 88%
    Show more